Location: Arrodets-la-Barthe
(43.0306°N, 0.2829°E)
Time: 00:46:11
(UTC+00:00)

DUCHIFAT 1 - Pass Details

Date: 10 April 2023
Orbit: 567 x 581 km, 98.1° (Epoch: 29 May)

Event Time Altitude Azimuth Distance (km) Brightness Sun altitude
Rises 03:39:55 0° 7° (N) 2,782 ? -18.9°
Reaches altitude 10° 03:42:07 10° 3° (N) 1,878 ? -18.5°
Maximum altitude 03:46:02 50° 288° (WNW) 727 ? -17.9°
Enters shadow 03:47:03 40° 243° (WSW) 851 ? -17.8°
